Other Public Products
Issued by NWS Charleston, SC

Current Version | Previous Version | Graphics & Text | Print | Product List | Glossary On
Versions: 1 2 3 4 5 6 7 8 9 10 11 12 13 14 15 16 17 18 19 20 21 22 23 24 25 26 27 28 29 30 31 32 33 34 35 36 37 38 39 40 41 42 43 44 45 46 47 48 49 50
453
FPUS82 KCHS 271627
OPUCHS

TEST...KCHS/KSAV Gateway Observations...TEST
National Weather Service Charleston SC
1200 PM EDT THU APR 27 2017

NOTE: "fair" indicates few or no clouds below 12,000 feet with no
significant weather and/or obstructions to visibility.

SCZ050-WAZ558-NCZ071-TXZ119-213-PAZ071-DCZ001-FLZ074-172-MI076-
NYZ176-178-MAZ016-IL014-TNZ027-NJZ106-GAZ044-MD014-271700-

...Gateway Observations for Charleston International...

CITY           SKY/WX    TMP DP  RH WIND       PRES   REMARKS
Chas Airport   PTSUNNY   81  59  47 S18       29.94S
Seattle        PTSUNNY   47  39  74 S14       30.08R
Charlotte      CLOUDY    73  55  53 S17       29.89F
Dallas DFW     PTSUNNY   64  50  60 S13       29.80F
Dallas Love    PTSUNNY   65  47  52 S14       29.82F
Philladelphia  PTSUNNY   74  61  63 CALM      29.88F
Wash National  CLOUDY    75  66  73 S7        29.86F
Baltimore      CLOUDY    72  64  76 E6        29.85F
Miami          PTSUNNY   87  73  62 SE14      29.98S HX  94
Detroit        LGT RAIN  67  57  70 SW21G32   29.53R
Newark         PTSUNNY   66  57  72 VRB6      29.91R
Laguardia      CLOUDY    67  56  67 S8        29.90F
J F K          PTSUNNY   64  59  83 S9        29.93S
Boston Logan   CLOUDY    57  54  89 E6        29.94S
Ft. Lauderdale PTSUNNY   84  73  69 SE15      29.98R HX  90
Chicago O`Hare CLOUDY    47  39  74 SW21G29   29.53R
Chicago Midway CLOUDY    47  40  76 SW18G28   29.55R
Houston Bush   MOSUNNY   68  48  48 E9        29.85R
Houston Hobby  MOSUNNY   68  50  52 E7        29.84S
Nashville      CLOUDY    65  55  70 W10G18    29.78R
Atlanta        CLOUDY    71  67  87 SW12      29.83R

$$

GAZ044-118-TXZ119-213-NCZ071-DCZ001-MDZ014-506-PAZ021-071-NJZ106-
NYZ176-178-MAZ106-OHZ011-021-055-MIZ076-KYZ091-ILZ014-INZ047-
MNZ060-ONZ431-271700-

...Gateway Observations for Savannah International...

CITY           SKY/WX    TMP DP  RH WIND       PRES   REMARKS
Savannah Arpt  MOSUNNY   85  63  47 S16       29.91F
Atlanta        CLOUDY    71  67  87 SW12      29.83R
Charlotte      CLOUDY    73  55  53 S17       29.89F
Dallas DFW     PTSUNNY   64  50  60 S13       29.80F
Houston Bush   MOSUNNY   68  48  48 E9        29.85R
Wash National  CLOUDY    75  66  73 S7        29.86F
Wash Dulles    CLOUDY    70  62  76 S7        29.85F
Baltimore      CLOUDY    72  64  76 E6        29.85F
Philadelphia   PTSUNNY   74  61  63 CALM      29.88F
Newark         PTSUNNY   66  57  72 VRB6      29.91R
Laguardia      CLOUDY    67  56  67 S8        29.90F
J F K          PTSUNNY   64  59  83 S9        29.93S
Boston         CLOUDY    57  54  89 E6        29.94S
Pittsburg      CLOUDY    77  56  48 S12G20    29.69S
Akron          CLOUDY    78  55  44 S16G29    29.63F
Cleveland      CLOUDY    79  56  45 S21G29    29.59F
Cincinnati     PTSUNNY   69  59  70 SW18G28   29.63S
Columbus       CLOUDY    73  56  56 S20G28    29.61R
Detroit        LGT RAIN  67  57  70 SW21G32   29.53R
Chicago O`Hare CLOUDY    47  39  74 SW21G29   29.53R
Minneapolis    CLOUDY    34  26  72 NW13      29.57R WCI  25
Indianapolis   CLOUDY    54  47  77 W15       29.66R
Toronto Canada PTSUNNY   70  59  68 SE9G17    29.63F

$$




USA.gov is the U.S. government's official web portal to all federal, state and local government web resources and services.